[[{"header":{"parameterUnit":"m.s-1","parameterCategory":1,"la1":30.2991,"la2":30.254,"lo1":-89.0895,"lo2":-89.0444,"dy":0.0017,"dx":0.0017,"nx":28,"ny":28,"refTime":"2024-05-17T09:00:00:Z","depth":0,"parameterNumber":2,"parameterNumberName":"U-component_of_WINDS"},"data":[0,0,0,0,0,0,0,0,0,0,0,0,0,0,0,0,0,0,0,0,0,0,0,0,0,0,0,0,0,0,0,0,0,0,0,0,0,0,0,0,0,0,0,0,0,0,0,0,0,0,0,0,0,0,0,0,0,0,-0.5875,-0.5875,0,-0.5891,-0.5891,-0.5891,-0.586,-0.5859,-0.5858,-0.5857,-0.5876,-0.5877,-0.5879,0,0,0,0,0,0,0,0,0,0,0,0,0,-0.582,-0.5821,-0.5875,-0.5875,-0.5875,-0.5891,-0.5891,-0.5891,-0.586,-0.5859,-0.5857,-0.5856,-0.5875,-0.5877,-0.5879,0,0,0,0,0,0,0,0,0,0,0,0,0,-0.5841,-0.5822,-0.5875,-0.5861,-0.586,-0.5891,-0.5891,-0.5892,-0.586,-0.5859,-0.5857,-0.5856,-0.5875,-0.5877,-0.5879,-0.5924,0,0,-0.5886,-0.5887,0,0,0,0,0,0,0,0,-0.584,-0.5843,-0.5863,-0.5862,-0.5861,-0.5872,-0.5879,-0.5903,-0.5861,-0.586,-0.5857,-0.5855,-0.5876,-0.5878,-0.5884,-0.5925,-0.5926,-0.5886,-0.5887,-0.5888,-0.5889,0,0,0,0,0,0,0,-0.5838,-0.5842,-0.5881,-0.5864,-0.5862,-0.5856,-0.5857,-0.5883,-0.5877,-0.586,-0.5858,-0.586,-0.5875,-0.5882,-0.5885,-0.5926,-0.5886,-0.5888,-0.5889,-0.589,-0.6007,-0.6008,0,0,0,0,0,0,-0.5838,-0.5841,-0.5881,-0.5882,-0.5846,-0.5858,-0.5859,-0.587,-0.5876,-0.5876,-0.5861,-0.5859,-0.5879,-0.5882,-0.5885,-0.594,-0.5888,-0.5891,-0.5892,-0.6005,-0.6007,-0.6009,0,0,0,0,0,0,-0.5837,-0.5842,-0.588,-0.5861,-0.5865,-0.586,-0.5873,-0.5871,-0.5878,-0.5877,-0.5876,-0.587,-0.5878,-0.5882,-0.5915,-0.594,-0.5892,-0.5894,-0.6003,-0.6006,-0.6008,-0.6049,0,0,0,0,0,0,-0.5836,-0.5842,-0.5858,-0.5861,-0.5866,-0.5909,-0.5874,-0.5873,-0.5882,-0.5878,-0.5885,-0.5885,-0.5877,-0.5912,-0.5917,-0.5942,-0.5895,-0.6001,-0.6004,-0.6007,-0.6045,-0.6052,-0.6058,0,0,0,0,0,-0.5834,-0.5869,-0.5859,-0.5864,-0.5887,-0.591,-0.5913,-0.5903,-0.5884,-0.5901,-0.5901,-0.5884,-0.5936,-0.5916,-0.5921,-0.5947,-0.5999,-0.6003,-0.6007,-0.6042,-0.6051,-0.6058,0,0,0,0,0,0,-0.587,-0.5869,-0.5858,-0.5895,-0.5903,-0.5905,-0.5926,-0.5913,-0.5927,-0.5923,-0.5911,-0.5913,-0.5948,-0.5951,-0.5928,-0.5992,-0.5965,-0.597,-0.5989,-0.5998,-0.6004,-0.6003,-0.5897,0,0,0,0,0,-0.5882,-0.59,-0.5899,-0.5932,-0.5937,-0.5931,-0.5941,-0.5932,-0.594,-0.5944,-0.5945,-0.5954,-0.5973,-0.5985,-0.6002,-0.6045,-0.6047,-0.6066,-0.6073,-0.6078,-0.6083,-0.6108,-0.6116,-0.6022,-0.6022,-0.6022,0,0,-0.5908,-0.591,-0.5922,-0.594,-0.5945,-0.5965,-0.5934,-0.5956,-0.5972,-0.5947,-0.5979,-0.598,-0.599,-0.6028,-0.6045,-0.6032,-0.611,-0.6083,-0.6087,-0.609,-0.6113,-0.6121,-0.6129,-0.6025,-0.6024,-0.6024,0,0,-0.5965,-0.5967,-0.5996,-0.6001,-0.6009,-0.6005,-0.6012,-0.6016,-0.6016,-0.6047,-0.6029,-0.6048,-0.6079,-0.6087,-0.6095,-0.6156,-0.6142,-0.6162,-0.6198,-0.6222,-0.6229,-0.6236,-0.6259,-0.6267,-0.6167,-0.6167,-0.6167,0,-0.5996,-0.6025,-0.6012,-0.6037,-0.6045,-0.6023,-0.6053,-0.6059,-0.6072,-0.608,-0.6064,-0.6103,-0.6108,-0.6149,-0.6164,-0.6171,-0.6179,-0.6162,-0.6229,-0.6235,-0.6241,-0.6263,-0.6272,-0.6169,-0.6169,-0.6169,-0.6169,0,-0.6063,-0.6084,-0.6106,-0.6119,-0.613,-0.6157,-0.615,-0.6163,-0.6154,-0.6152,-0.6185,-0.6189,-0.6207,-0.6216,-0.6208,-0.6256,-0.6248,-0.623,-0.6203,-0.6253,-0.6273,-0.6281,-0.6173,-0.6172,-0.6171,-0.6171,0,0,-0.6144,-0.6149,-0.6158,-0.6164,-0.6171,-0.6187,-0.6213,-0.623,-0.6242,-0.6252,-0.6275,-0.6303,-0.6287,-0.6296,-0.6289,-0.631,-0.6359,-0.629,-0.629,-0.6304,-0.6415,-0.6428,-0.6438,-0.635,-0.6351,-0.6352,-0.6414,0,-0.6202,-0.6246,-0.6236,-0.628,-0.63,-0.6279,-0.6302,-0.631,-0.6309,-0.6326,-0.6326,-0.6346,-0.6323,-0.6329,-0.6348,-0.6349,-0.6382,-0.6344,-0.6372,-0.6373,-0.6372,-0.6449,-0.6463,-0.6521,-0.6422,-0.6424,-0.6424,0,-0.6275,-0.6287,-0.6333,-0.6338,-0.6345,-0.6366,-0.6381,-0.6398,-0.6407,-0.6405,-0.6415,-0.6404,-0.6431,-0.6403,-0.6441,-0.6416,-0.6427,-0.6429,-0.6431,-0.6435,-0.6403,-0.6455,-0.6539,-0.6549,-0.6437,-0.6436,-0.6435,0,-0.633,-0.6358,-0.639,-0.6395,-0.6401,-0.6417,-0.642,-0.6427,-0.6438,-0.6452,-0.6459,-0.6476,-0.6486,-0.65,-0.6494,-0.6473,-0.6534,-0.6504,-0.6534,-0.6535,-0.6549,-0.6548,-0.6637,-0.6554,-0.6554,-0.6554,-0.6554,0,-0.6396,-0.6426,-0.6415,-0.6434,-0.6467,-0.6456,-0.6489,-0.649,-0.6496,-0.6517,-0.65,-0.652,-0.651,-0.653,-0.6525,-0.6559,-0.6563,-0.6563,-0.6562,-0.6565,-0.6566,-0.6573,-0.657,-0.6556,-0.6556,-0.6555,-0.6555,0,-0.6465,-0.6458,-0.6491,-0.6494,-0.6496,-0.652,-0.6523,-0.6542,-0.6539,-0.6566,-0.6571,-0.6568,-0.659,-0.6585,-0.661,-0.6607,-0.665,-0.6643,-0.6646,-0.6645,-0.6676,-0.6674,-0.6774,-0.6787,-0.6694,-0.6695,-0.6696,0,-0.6508,-0.653,-0.6535,-0.6547,-0.6551,-0.6571,-0.6582,-0.6572,-0.6584,-0.6596,-0.6614,-0.6634,-0.665,-0.6687,-0.6688,-0.6707,-0.6701,-0.6735,-0.6704,-0.6707,-0.6703,-0.6703,-0.6706,-0.6742,-0.6743,-0.6743,-0.6744,0,-0.6585,-0.6581,-0.6597,-0.6613,-0.6626,-0.6638,-0.6649,-0.666,-0.665,-0.6666,-0.6688,-0.67,-0.6725,-0.6746,-0.6764,-0.6769,-0.6756,-0.6754,-0.6762,-0.6766,-0.6768,-0.6769,-0.6665,-0.6752,-0.6751,-0.675,-0.675,-0.675,-0.6643,-0.6662,-0.6669,-0.6688,-0.6694,-0.6705,-0.6723,-0.6723,-0.674,-0.6759,-0.6752,-0.6778,-0.6788,-0.681,-0.6817,-0.6838,-0.6825,-0.6837,-0.684,-0.6843,-0.6848,-0.6764,-0.6841,-0.6841,-0.684,-0.684,-0.684,0,-0.6721,-0.6724,-0.6742,-0.6757,-0.6772,-0.6757,-0.6768,-0.6782,-0.6805,-0.6814,-0.683,-0.6856,-0.6876,-0.6879,-0.6899,-0.6915,-0.691,-0.6921,-0.692,-0.6922,-0.6857,-0.6849,-0.6925,-0.6925,-0.6925,-0.6925,-0.6925,-0.6925,-0.6764,-0.6795,-0.6792,-0.6828,-0.6831,-0.6855,-0.6863,-0.6873,-0.688,-0.691,-0.6927,-0.6928,-0.6935,-0.6955,-0.6974,-0.6974,-0.6983,-0.6997,-0.6995,-0.6935,-0.6926,-0.6918,-0.691,-0.6999,-0.6999,-0.7059,-0.7059,-0.706]},{"header":{"parameterUnit":"m.s-1","parameterCategory":1,"la1":30.2991,"la2":30.254,"lo1":-89.0895,"lo2":-89.0444,"dy":0.0017,"dx":0.0017,"nx":28,"ny":28,"refTime":"2024-05-17T09:00:00:Z","depth":0,"parameterNumber":3,"parameterNumberName":"V-component_of_WINDS"},"data":[0,0,0,0,0,0,0,0,0,0,0,0,0,0,0,0,0,0,0,0,0,0,0,0,0,0,0,0,0,0,0,0,0,0,0,0,0,0,0,0,0,0,0,0,0,0,0,0,0,0,0,0,0,0,0,0,0,0,0.3875,0.3875,0,0.3878,0.3878,0.3878,0.3873,0.3872,0.3872,0.3872,0.3875,0.3876,0.3876,0,0,0,0,0,0,0,0,0,0,0,0,0,0.3863,0.3863,0.3875,0.3875,0.3875,0.3878,0.3878,0.3878,0.3873,0.3872,0.3872,0.3872,0.3875,0.3876,0.3876,0,0,0,0,0,0,0,0,0,0,0,0,0,0.3867,0.3863,0.3875,0.3872,0.3872,0.3878,0.3878,0.3878,0.3873,0.3872,0.3872,0.3872,0.3875,0.3875,0.3876,0.3884,0,0,0.3877,0.3877,0,0,0,0,0,0,0,0,0.3867,0.3868,0.3873,0.3873,0.3872,0.3875,0.3875,0.388,0.3873,0.3873,0.3872,0.3872,0.3875,0.3876,0.3877,0.3884,0.3885,0.3877,0.3877,0.3878,0.3878,0,0,0,0,0,0,0,0.3867,0.3868,0.3876,0.3873,0.3873,0.3871,0.3871,0.3876,0.3876,0.3873,0.3872,0.3873,0.3875,0.3877,0.3877,0.3885,0.3877,0.3878,0.3878,0.3878,0.3899,0.3899,0,0,0,0,0,0,0.3867,0.3868,0.3876,0.3876,0.3869,0.3872,0.3872,0.3874,0.3875,0.3875,0.3873,0.3872,0.3876,0.3877,0.3877,0.3887,0.3878,0.3878,0.3878,0.3898,0.3899,0.3899,0,0,0,0,0,0,0.3867,0.3868,0.3876,0.3872,0.3873,0.3872,0.3875,0.3875,0.3876,0.3876,0.3876,0.3874,0.3876,0.3877,0.3882,0.3887,0.3878,0.3879,0.3898,0.3898,0.3899,0.3906,0,0,0,0,0,0,0.3866,0.3868,0.3871,0.3872,0.3873,0.3881,0.3875,0.3875,0.3877,0.3876,0.3877,0.3877,0.3876,0.3882,0.3883,0.3887,0.3879,0.3898,0.3898,0.3899,0.3905,0.3906,0.3907,0,0,0,0,0,0.3866,0.3873,0.3871,0.3872,0.3877,0.3882,0.3882,0.388,0.3877,0.388,0.388,0.3877,0.3886,0.3883,0.3884,0.3888,0.3897,0.3898,0.3899,0.3905,0.3906,0.3907,0,0,0,0,0,0,0.3872,0.3873,0.3871,0.3878,0.388,0.3881,0.3884,0.3882,0.3885,0.3884,0.3882,0.3882,0.3888,0.3889,0.3885,0.3896,0.3891,0.3892,0.3895,0.3897,0.3898,0.3897,0.3879,0,0,0,0,0,0.3875,0.3878,0.3879,0.3885,0.3886,0.3885,0.3887,0.3886,0.3887,0.3888,0.3888,0.389,0.3893,0.3895,0.3898,0.3905,0.3905,0.3909,0.391,0.3911,0.3912,0.3915,0.3917,0.3901,0.3901,0.3901,0,0,0.3879,0.388,0.3882,0.3886,0.3887,0.3891,0.3886,0.389,0.3893,0.3888,0.3894,0.3894,0.3896,0.3902,0.3905,0.3903,0.3916,0.3912,0.3913,0.3913,0.3916,0.3918,0.3919,0.3902,0.3902,0.3902,0,0,0.3889,0.3891,0.3896,0.3897,0.3899,0.3898,0.3899,0.39,0.39,0.3906,0.3903,0.3906,0.3912,0.3913,0.3914,0.3925,0.3922,0.3926,0.3932,0.3935,0.3936,0.3937,0.3941,0.3942,0.3926,0.3927,0.3927,0,0.3895,0.39,0.3899,0.3903,0.3905,0.3901,0.3906,0.3908,0.391,0.3911,0.3909,0.3916,0.3916,0.3923,0.3926,0.3927,0.3928,0.3925,0.3936,0.3937,0.3938,0.3941,0.3943,0.3927,0.3927,0.3927,0.3927,0,0.3907,0.3911,0.3915,0.3917,0.3919,0.3924,0.3923,0.3926,0.3924,0.3924,0.3929,0.393,0.3933,0.3935,0.3933,0.3941,0.394,0.3937,0.3932,0.394,0.3943,0.3944,0.3928,0.3927,0.3927,0.3927,0,0,0.3921,0.3922,0.3924,0.3925,0.3926,0.3929,0.3934,0.3937,0.3939,0.3941,0.3944,0.3949,0.3946,0.3948,0.3947,0.395,0.3958,0.3946,0.3946,0.3948,0.3966,0.3967,0.3969,0.3956,0.3956,0.3956,0.3965,0,0.393,0.3938,0.3937,0.3945,0.3948,0.3945,0.3949,0.395,0.395,0.3953,0.3952,0.3956,0.3952,0.3953,0.3956,0.3956,0.3961,0.3955,0.3959,0.3959,0.3958,0.3971,0.3972,0.3981,0.3967,0.3967,0.3967,0,0.3943,0.3945,0.3953,0.3954,0.3955,0.3959,0.3961,0.3964,0.3965,0.3965,0.3967,0.3965,0.3969,0.3965,0.397,0.3967,0.3968,0.3968,0.3969,0.3968,0.3963,0.397,0.3984,0.3985,0.3969,0.3969,0.3969,0,0.3952,0.3957,0.3962,0.3963,0.3964,0.3967,0.3967,0.3969,0.397,0.3972,0.3973,0.3976,0.3977,0.3979,0.3978,0.3975,0.3984,0.398,0.3984,0.3984,0.3985,0.3985,0.3999,0.3987,0.3987,0.3987,0.3987,0,0.3962,0.3967,0.3966,0.3969,0.3974,0.3973,0.3978,0.3978,0.3979,0.3982,0.398,0.3983,0.3981,0.3984,0.3983,0.3988,0.3989,0.3988,0.3988,0.3988,0.3988,0.3989,0.3988,0.3987,0.3987,0.3987,0.3987,0,0.3973,0.3972,0.3978,0.3978,0.3979,0.3982,0.3983,0.3986,0.3986,0.3989,0.399,0.399,0.3993,0.3992,0.3995,0.3995,0.4001,0.4,0.4,0.4,0.4004,0.4003,0.4018,0.4019,0.4007,0.4007,0.4007,0,0.3979,0.3983,0.3984,0.3986,0.3987,0.399,0.3992,0.399,0.3992,0.3994,0.3996,0.3999,0.4002,0.4007,0.4007,0.4009,0.4008,0.4013,0.4008,0.4008,0.4007,0.4007,0.4007,0.4014,0.4014,0.4014,0.4014,0,0.3991,0.3991,0.3993,0.3996,0.3998,0.4,0.4001,0.4003,0.4002,0.4004,0.4007,0.4009,0.4012,0.4015,0.4017,0.4018,0.4015,0.4015,0.4016,0.4016,0.4016,0.4016,0.4002,0.4015,0.4015,0.4015,0.4015,0.4015,0.3999,0.4002,0.4003,0.4006,0.4007,0.4009,0.4012,0.4012,0.4014,0.4017,0.4016,0.4019,0.4021,0.4023,0.4024,0.4027,0.4025,0.4027,0.4027,0.4027,0.4027,0.4016,0.4027,0.4027,0.4027,0.4027,0.4027,0,0.4011,0.4011,0.4014,0.4016,0.4018,0.4016,0.4018,0.402,0.4023,0.4024,0.4026,0.403,0.4033,0.4033,0.4035,0.4037,0.4036,0.4038,0.4037,0.4037,0.4029,0.4028,0.4039,0.4039,0.4039,0.4039,0.4039,0.4039,0.4017,0.4021,0.4021,0.4026,0.4027,0.403,0.4031,0.4032,0.4033,0.4037,0.4039,0.4039,0.404,0.4043,0.4045,0.4045,0.4046,0.4048,0.4047,0.4039,0.4038,0.4037,0.4036,0.4048,0.4048,0.4055,0.4055,0.4055]}]]